Regional Weather Roundup
Issued by NWS

Home | Current Version | Previous Version | Graphics & Text | Print | Product List | Glossary On
Versions: 1 2 3 4 5 6 7 8 9 10 11 12 13 14 15 16 17 18 19 20 21 22 23 24 25 26 27 28 29 30 31 32 33 34 35 36 37 38 39 40 41 42 43 44 45 46 47 48 49 50
000
ASUS43 KMKX 230110
RWRWI

WISCONSIN REGIONAL WEATHER ROUNDUP
NATIONAL WEATHER SERVICE MILWAUKEE/SULLIVAN WI
700 PM CST MON JAN 22 2018

NOTE: "FAIR" INDICATES FEW OR NO CLOUDS BELOW 12,000 FEET WITH NO
SIGNIFICANT WEATHER AND/OR OBSTRUCTIONS TO VISIBILITY.

WIZ001-002-006>008-014>016-023>028-230200-
NORTHWEST WISCONSIN

CITY           SKY/WX    TMP DP  RH WIND       PRES   REMARKS
SUPERIOR ARPT  CLOUDY    27  20  77 N14G21    29.90S WCI  15
ASHLAND        SNOW      24  22  91 NE23G32   29.87F VSB 1/2 WCI   9
HAYWARD        LGT SNOW  24  20  84 N20G29    29.75F VSB 1   WCI  10
SIREN            N/A     26  23  89 NE17G24   29.78S WCI  13
CUMBERLAND       N/A     25  21  86 N18G28    29.69F WCI  11
RICE LAKE        N/A     26  25  93 N23G31    29.70R WCI  12
CHETEK         LGT SNOW  28  25  90 N14G21    29.69R WCI  16
LADYSMITH      CLOUDY    28  26  92 N21G26    29.66F WCI  14
EAU CLAIRE     LGT SNOW  29  27  92 N10G20    29.64R FOG     WCI  20
MENOMONIE      LGT SNOW  30  28  92 N15       29.67R WCI  19
NEW RICHMOND   CLOUDY    26  24  92 N20G26    29.71R WCI  12
OSCEOLA        CLOUDY    27  27 100 N15G23    29.77S WCI  15
$$

WIZ003>005-009-010-017-018-230200-
NORTH CENTRAL WISCONSIN

CITY           SKY/WX    TMP DP  RH WIND       PRES   REMARKS
MANITOWISH WTR SNOW      23  23 100 N9        29.71F VSB 1/2 WCI  13
ARBOR VITAE    LGT SNOW  25  23  92 NE13      29.68F WCI  13
WOODRUFF       LGT SNOW  25  23  92 NE13      29.68F WCI  13
RHINELANDER    LGT SNOW  26  25  96 NE12G23   29.62F VSB 3/4 WCI  16
EAGLE RIVER    LGT SNOW  25  24  99 N17       29.67F VSB 3/4 WCI  11
LAND O LAKES   LGT SNOW  25  22  91 NE9       29.72F WCI  15
PHILLIPS       LGT SNOW  25  24  97 N18G28    29.65F WCI  11
TOMAHAWK       LGT SNOW  27  24  91 NE14G20   29.61F WCI  15
MEDFORD        FLURRIES  28  25  87 NE15G23   29.58R WCI  17
MERRILL        LGT SNOW  29  27  92 NE13G29   29.58F WCI  19
$$

WIZ029-030-035-036-043>047-230200-
CENTRAL WISCONSIN

CITY           SKY/WX    TMP DP  RH WIND       PRES   REMARKS
WAUSAU         LGT SNOW  30  27  88 NE10      29.56F FOG     WCI  21
MOSINEE        LGT SNOW  30  28  93 NE14      29.57F WCI  20
MARSHFIELD     LGT SNOW  31  29  92 NE12      29.56R FOG     WCI  22
STEVENS POINT  CLOUDY    29  28  96 NE13      29.57S WCI  19
WAUPACA        CLOUDY    32  28  86 N10       29.56S WCI  24
WAUTOMA        CLOUDY    31  28  89 NE17G23   29.54S WCI  19
WISC RAPIDS    NOT AVBL
CAMP DOUGLAS   CLOUDY    32  32 100 NE12      29.54F WCI  23
$$

WIZ011>013-019>022-031-037>040-048>050-230200-
NORTHEAST WISCONSIN

CITY           SKY/WX    TMP DP  RH WIND       PRES   REMARKS
ANTIGO         LGT SNOW  28  26  94 NE17      29.58R WCI  15
SHAWANO        CLOUDY    32  29  88 NE13      29.59S WCI  22
OCONTO         CLOUDY    30  28  91 N9        29.58F WCI  21
STURGEON BAY   CLOUDY    32  30  92 N17       29.56F FOG     WCI  21
GREEN BAY      CLOUDY    31  29  92 N20G33    29.56S FOG     WCI  19
MANITOWOC      MIX PCPN  34  33  96 N13G20    29.52R WCI  25
APPLETON       CLOUDY    30  30 100 N18G29    29.52S WCI  18
CLINTONVILLE   CLOUDY    32  28  86 NE14G23   29.57S WCI  22
OSHKOSH        CLOUDY    32  30  92 NE21G31   29.52F WCI  20
$$

WIZ032>034-041-042-053>061-230200-
SOUTHWEST WISCONSIN

CITY           SKY/WX    TMP DP  RH WIND       PRES   REMARKS
LA CROSSE      CLOUDY    35  35 100 N10       29.56S WCI  27
SPARTA         CLOUDY    32  31  96 NE8       29.56S WCI  25
VIROQUA        CLOUDY    32  32 100 NE15      29.51S WCI  22
BOSCOBEL       CLOUDY    37  32  82 NE8       29.51S WCI  31
PRAIRIE DU CHI CLOUDY    36  33  89 N5        29.51S WCI  32
PLATTEVILLE    CLOUDY    37  37 100 NE3       29.50R
$$

WIZ056-057-062-063-064-067-068-230200-
SOUTH CENTRAL WISCONSIN

CITY           SKY/WX    TMP DP  RH WIND       PRES   REMARKS
REEDSBURG      CLOUDY    32  32 100 NE8       29.53R WCI  25
BARABOO/DELLS  CLOUDY    32  31  96 NE8G17    29.52S WCI  25
LONE ROCK      CLOUDY    34  33  96 NE13G23   29.51F WCI  25
MINERAL POINT  MIX PCPN  36  36 100 NE10G22   29.48R WCI  28
MADISON        CLOUDY    34  33  96 N13       29.50S WCI  25
MIDDLETON      CLOUDY    35  35 100 N13       29.49S WCI  26
WATERTOWN      LGT RAIN  34  34 100 N13       29.47R WCI  25
MONROE         CLOUDY    34  34 100 N5        29.48R WCI  30
JANESVILLE     LGT RAIN  39  39 100 VRB6      29.48R WCI  35
$$

WIZ051-052-058>065-066-070>072-230200-
SOUTHEAST WISCONSIN

CITY           SKY/WX    TMP DP  RH WIND       PRES   REMARKS
MILWAUKEE      FOG       37  37 100 NE13      29.45F VSB 1/2 WCI  29
WAUKESHA       FOG       36  36 100 NE9       29.45F VSB 1/2 WCI  29
MILWAUKEE/TIMM CLOUDY    37  36  93 NE7       29.47F FOG     WCI  32
RACINE         FOG       37  37 100 N10       29.46F VSB 1/2 WCI  30
BURLINGTON     FOG       39  38  97 N5        29.44R VSB 1
KENOSHA        FOG       39  37  92 NE9       29.43F VSB 1   WCI  33
FOND DU LAC    LGT RAIN  33  30  88 N18       29.52S FOG     WCI  22
SHEBOYGAN      LGT RAIN  35  35 100 N13       29.50R FOG     WCI  26
WEST BEND      CLOUDY    34  34 100 N10       29.48S FOG     WCI  26
JUNEAU         DRIZZLE   32  32 100 N13G20    29.50F WCI  22
$$

LSZ147-162-230200-
LAKE SUPERIOR

STATION/POSITION TIME  TEMP    WIND        PRES    WAVE
                       AIR SEA DIR/SP/G            HT/PER
                 (UTC) (F)     (DEG/KT/KT) (MB)    (FT/S)
DEVILS ISLAND    0100   25      50/ 21/ 24 1013.7R
SAXON HARBOR     0040   27      30/ 23/ 30 1010.8R
$$

LMZ867-665-643>646-230200-
LAKE MICHIGAN

STATION/POSITION TIME  TEMP    WIND        PRES    WAVE
                       AIR SEA DIR/SP/G            HT/PER
                 (UTC) (F)     (DEG/KT/KT) (MB)    (FT/S)
NORTHPORT PIER   0040   31      40/  9/ 17 1003.7R
KEWAUNEE LAKESHO 0048   34      10/ 13/ 21  999.5F
SHEBOYGAN LAKESH 0100   35     350/ 17/ 19  999.4R
PORT WASHINGTON  0040   37     360/  3/  8  999.7S
MILWAUKEE LAKESH 0050   36      20/ 13/ 15   N/A
KENOSHA   LAKESH 0100   36      30/  4/  5  997.6
$$

TC  - TEMPERATURE IN CELSIUS
VSB - VISIBILITY IN STATUTE MILES
WCI - WIND CHILL INDEX
HX  - HEAT INDEX





USA.gov is the U.S. government's official web portal to all federal, state and local government web resources and services.